Overview Statistics Trail Chart Weather Telemetry Raw packets
 

This is the latest recevied weather packets stored in our database for station/object KGRR-WX. If no packets are shown the sender has not sent any weather packets the latest 10 day(s).

<< 21 22 23 24 25 26 27 >>
Time Temp. Humidity Pressure Rain* Wind** Luminosity Snow
1788131706 25° C 68% 986.6 hPa 0 mm - - -
1788130809 25° C 68% 986.6 hPa 0 mm - - -
1788129909 25.56° C 61% 987.2 hPa 0 mm - - -
1788129016 23.33° C 63% 987.4 hPa 0 mm - - -
1788128109 22.78° C 63% 987.4 hPa 0 mm - - -
1788127210 25.56° C 63% 987.4 hPa 0 mm - - -
1788126309 26.67° C 65% 987.1 hPa 0 mm - - -
1788125410 27.22° C 62% 987.4 hPa 0 mm - - -
1788124508 26.67° C 62% 987.5 hPa 0 mm - - -
1788123606 27.22° C 62% 987.5 hPa 0 mm - - -
1788122708 25.56° C 63% 987.6 hPa 0 mm - - -
1788121808 27.78° C 67% 987 hPa 0 mm - - -
1788120914 27.22° C 67% 987 hPa 0 mm - - -
1788120008 27.22° C 68% 987.1 hPa 0 mm - - -
1788119108 27.22° C 70% 987.1 hPa 0 mm - - -
1788118207 26.67° C 70% 987.1 hPa 0 mm - - -
1788117307 26.11° C 68% 987 hPa 0 mm - - -
1788116408 25.56° C 68% 987 hPa 0 mm - - -
1788115507 25.56° C 74% 987.6 hPa 0 mm - - -
1788114605 25° C 74% 987.6 hPa 0 mm - - -
1788113707 25° C 74% 987.6 hPa 0 mm - - -
1788112807 24.44° C 74% 987.6 hPa 0 mm - - -
1788111906 23.89° C 77% 987.8 hPa 0 mm - - -
1788111005 22.78° C 77% 987.8 hPa 0 mm - - -
1788110104 22.78° C 77% 987.8 hPa 0 mm - - -

* Rain latest hour (hover to see other rain measurements)
** Current wind speed in m/s (hover to see current wind gust speed)